WetterOnline ( https://www.wetteronline.de )

Wetter aktuell Freiburg

Aktuelles Wetter: Freiburg/Flugplatz (236m)

6-stündlich | Neueste Meldungen
Ortszeit Temperatur Wetter
Do, 26.11. 1:00 -1.3° C Nebel
Mi, 25.11. 19:00 0.6° C Nebel
Mi, 25.11. 13:00 2.7° C bedeckt
Mi, 25.11. 7:00 0.7° C Nebel
Mi, 25.11. 1:00 0.6° C Nebel
Di, 24.11. 19:00 1.3° C Nebel
Di, 24.11. 13:00 7.4° C wolkenlos
Di, 24.11. 7:00 -1.2° C wolkenlos
Ortszeit Temperatur Wetter
Do, 26.11. 5:30 -2.3° C Nebel
Do, 26.11. 5:20 -2.3° C Nebel
Do, 26.11. 5:10 -2.0° C Nebel
Do, 26.11. 5:00 -1.6° C Nebel
Do, 26.11. 4:50 -1.6° C Nebel
Do, 26.11. 4:40 -1.7° C Nebel
Do, 26.11. 4:30 -1.6° C Nebel
Do, 26.11. 4:00 -1.0° C Nebel
Do, 26.11. 3:30 -0.6° C bedeckt
Do, 26.11. 3:00 -1.1° C bedeckt
Do, 26.11. 2:30 -1.4° C Nebel
Ortszeit Relative Feuchte Sichtweite
Do, 26.11. 1:00 99% 100 m
Mi, 25.11. 19:00 100% 100 m
Mi, 25.11. 13:00 96% 4.0 km
Mi, 25.11. 7:00 99% 0.5 km
Mi, 25.11. 1:00 99% 100 m
Di, 24.11. 19:00 99% 100 m
Di, 24.11. 13:00 72% 17 km
Di, 24.11. 7:00 96% 8 km
Ortszeit Relative Feuchte Sichtweite
Do, 26.11. 5:30 98% 0.2 km
Do, 26.11. 5:20 98% -
Do, 26.11. 5:10 96% -
Do, 26.11. 5:00 98% 0.2 km
Do, 26.11. 4:50 98% -
Do, 26.11. 4:40 99% -
Do, 26.11. 4:30 97% 0.4 km
Do, 26.11. 4:00 99% 0.4 km
Do, 26.11. 3:30 98% 1.1 km
Do, 26.11. 3:00 99% 1.2 km
Do, 26.11. 2:30 100% 100 m
Ortszeit Niederschlagsmenge Niederschlagsart
Do, 26.11. 1:00 0.0 l/m2 in 6 Std. -
Mi, 25.11. 19:00 0.0 l/m2 in 12 Std. -
Mi, 25.11. 13:00 0.0 l/m2 in 6 Std. -
Mi, 25.11. 7:00 0.0 l/m2 in 12 Std. -
Mi, 25.11. 1:00 0.0 l/m2 in 6 Std. -
Di, 24.11. 19:00 0.0 l/m2 in 12 Std. -
Di, 24.11. 13:00 0.0 l/m2 in 6 Std. -
Di, 24.11. 7:00 0.0 l/m2 in 12 Std. -
Ortszeit Niederschlagsmenge Niederschlagsart
Do, 26.11. 5:30 0.0 l/m2 in 1 Std. -
Do, 26.11. 5:20 keine Meldung -
Do, 26.11. 5:10 keine Meldung -
Do, 26.11. 5:00 0.0 l/m2 in 1 Std. -
Do, 26.11. 4:50 keine Meldung -
Do, 26.11. 4:40 keine Meldung -
Do, 26.11. 4:30 0.0 l/m2 in 1 Std. -
Do, 26.11. 4:00 0.0 l/m2 in 1 Std. -
Do, 26.11. 3:30 0.0 l/m2 in 1 Std. -
Do, 26.11. 3:00 0.0 l/m2 in 1 Std. -
Do, 26.11. 2:30 0.0 l/m2 in 1 Std. -
Ortszeit Stärke Spitze Richtung
km/h Bft. km/h Grad Sektor
Do, 26.11. 1:00 4 1 7 320° NW
Mi, 25.11. 19:00 4 1 14 10° N
Mi, 25.11. 13:00 4 1 11 330° NW
Mi, 25.11. 7:00 4 1 7 350° N
Mi, 25.11. 1:00 4 1 7 20° N
Di, 24.11. 19:00 4 1 14 340° N
Di, 24.11. 13:00 7 2 13 310° NW
Di, 24.11. 7:00 2 1 6 190° S
Ortszeit Stärke Spitze Richtung
km/h Bft. km/h Grad Sektor
Do, 26.11. 5:30 0 0 4 - -
Do, 26.11. 5:20 0 0 - - -
Do, 26.11. 5:10 0 0 - 350° N
Do, 26.11. 5:00 4 1 7 340° N
Do, 26.11. 4:50 4 1 - 340° N
Do, 26.11. 4:40 4 1 - 330° NW
Do, 26.11. 4:30 4 1 4 320° NW
Do, 26.11. 4:00 4 1 4 10° N
Do, 26.11. 3:30 0 0 4 - -
Do, 26.11. 3:00 4 1 11 180° S
Do, 26.11. 2:30 4 1 11 330° NW
Ortszeit Untergrenze Bedeckung Gattung
total tief tief mittel hoch
Do, 26.11. 1:00 <30 m 8/8 0/8 - - -
Mi, 25.11. 19:00 <30 m 8/8 0/8 - - -
Mi, 25.11. 13:00 60 m 8/8 8/8 - - -
Mi, 25.11. 7:00 60 m 8/8 8/8 - - -
Mi, 25.11. 1:00 <30 m 8/8 0/8 - - -
Di, 24.11. 19:00 <30 m 8/8 0/8 - - -
Di, 24.11. 13:00 - 0/8 0/8 - - -
Di, 24.11. 7:00 - 0/8 0/8 - - -
Ortszeit Bedeckungsgrad in Achtel und Wolkenuntergrenze
Do, 26.11. 5:30 4(<30m)
Do, 26.11. 5:20 4(<30m)
Do, 26.11. 5:10 5(<30m)
Do, 26.11. 5:00 5(<30m)
Do, 26.11. 4:50 5(<30m)
Do, 26.11. 4:40 4(<30m)
Do, 26.11. 4:30 4(30m)
Do, 26.11. 4:00 8(30m)
Do, 26.11. 3:30 8(30m)
Do, 26.11. 3:00 8(60m)
Do, 26.11. 2:30 8(<30m) 8(120m)
Ortszeit Luftdruck NN (hPa) Tendenz (hPa in 3 Std.)
Do, 26.11. 1:00 1024 + 0,5
Mi, 25.11. 19:00 1022 + 0,8
Mi, 25.11. 13:00 1022 - 0,9
Mi, 25.11. 7:00 1023 + 0,4
Mi, 25.11. 1:00 1023 - 0,7
Di, 24.11. 19:00 1024 - 0,2
Di, 24.11. 13:00 1025 - 2,0
Di, 24.11. 7:00 1028 - 1,2
Ortszeit Luftdruck NN (hPa) Tendenz (hPa in 3 Std.)
Do, 26.11. 5:30 1025 - 0,1
Do, 26.11. 5:20 1025 keine Meldung
Do, 26.11. 5:10 1025 keine Meldung
Do, 26.11. 5:00 1025 + 0,5
Do, 26.11. 4:50 1025 keine Meldung
Do, 26.11. 4:40 1025 keine Meldung
Do, 26.11. 4:30 1024 + 0,3
Do, 26.11. 4:00 1024 + 0,3
Do, 26.11. 3:30 1025 + 0,6
Do, 26.11. 3:00 1025 + 0,5
Do, 26.11. 2:30 1025 + 0,5
Ortszeit Schneehöhe (cm)
Do, 26.11. 1:00 0
Mi, 25.11. 19:00 0
Mi, 25.11. 13:00 0
Mi, 25.11. 7:00 0
Mi, 25.11. 1:00 0
Di, 24.11. 19:00 0
Di, 24.11. 13:00 0
Di, 24.11. 7:00 0
Ortszeit Schneehöhe (cm)
Do, 26.11. 5:30 0
Do, 26.11. 5:20 0
Do, 26.11. 5:10 0
Do, 26.11. 5:00 0
Do, 26.11. 4:50 0
Do, 26.11. 4:40 0
Do, 26.11. 4:30 0
Do, 26.11. 4:00 0
Do, 26.11. 3:30 0
Do, 26.11. 3:00 0
Do, 26.11. 2:30 0
Link zu dieser Seite / Seite empfehlen

Das Wetter in ...